COSMOS 2132

Satellite information

Favourite Embed

Satellite Type and Status

PAYLOADIN ORBIT

Key statistics

Satellite COSMOS 2132 at a glance.

Uptime

12723

Days in orbit

Revolutions

≈ 12.6

Per day

Orbit

LEO

Low Earth Orbit

Inclination

74.0

Latest

Satellite identification and parameters

Extended collection of information and parameters for COSMOS 2132.

Object identification

Identified? True

Debris? False

Object name: COSMOS 2132

International designator: 1991-009H

Object number (NORAD): 21107

Object ID (CCSDS): 21107

Country: COMMONWEALTH OF INDEPENDENT STATES (CIS)

Current information (Y/N): Y

RCS size: MEDIUM

Orbital parameters

Period: 114.695 minutes

Inclination: 74.0318 deg

SMA: 7819.716 km

Apoapsis: 1468.746 km

Periapsis: 1414.416 km

RAAN: 33.7491 deg

Eccentricy: 0.0034739

Argument of periapsis: 226.6378 deg

Mean anomaly: 207.2934 deg

Mean motion: 12.55498725 rev/day

Mean motion (dot): -0.00000013 rev/day2

B* drag term: 0.000021140706 1/REarth

Two-line elements (TLE)

Creation date: Dec. 12, 2025, 10:14 a.m.

Reference frame: TEME

Reference center: EARTH

Epoch: Dec. 12, 2025, 7:41 a.m. UTC

TLE line 0: 0 COSMOS 2132

TLE line 1: 1 21107U 91009H 25346.32043404 -.00000013 00000-0 21141-4 0 9998

TLE line 2: 2 21107 74.0318 33.7491 0034739 226.6378 207.2934 12.55498725596345

Live tracking on map

Real-time ground track for satellite COSMOS 2132.

In-orbit conjunctions

A list of the most updated potential collisions computed for object COSMOS 2132.

Target Orbit TCA Probability of collision Miss distance Type
THORAD DELTA 1 DEB SSO 2025-08-05 02:11:15 0.0001260528 505.0 (m) DEBRIS

Associated space launch

Military communications satellites

COSMOS 2132 was lifted into orbit during the mission ‘Kosmos-3M | Strela-1M 353-360’, on board a Kosmos-3M space rocket.

The launch took place on Feb. 12, 1991, 2:44 a.m. from 133/3 (133L).

For more information about the launch, click the button.

Launch to space Kosmos-3M | Strela-1M 353-360
Kosmos-3M | Strela-1M 353-360

Agency: N/A

Status: Launch Successful

Launch date: Feb. 12, 1991, 2:44 a.m. UTC

Rocket: Kosmos-3M

Launch pad: 133/3 (133L)

Location: Plesetsk Cosmodrome, Russian Federation

...

Latest news about this satellite

There are no fresh news available about this satellite. Check back as we update our databases every day.


Newsletter sign-up

Weekly statistics, charts and insights to help you stay on top of the space industry.